星链-36968(STARLINK-36968)

导读

STARLINK-36968(NORAD编号67995)是SpaceX星链(Starlink)星座的第二代低轨互联网通信卫星,属于星链全球卫星互联网组网的组成部分。它部署在近地轨道,配备相控阵天线与激光星间链路,可提供低延迟宽带互联网接入服务,支持Ku/Ka频段通信。在SpaceX 2026年降低四千颗星链卫星轨道高度的计划中,该星大概率会从550公里降至480公里,以此降低太空碰撞风险,减少空间碎片隐患,服务全球偏远地区、移动场景的互联网接入需求。

基本信息
目录编号:
67995
目录名称:
STARLINK-36968
国际标识:
2026-039K
轨道中心:
EARTH
卫星名称:
星链-36968
卫星全名:
星链-36968(STARLINK-36968)
卫星状态:
在轨 (已飞行106 天)
发射日期:
2026-02-27 UTC
国别 :
美国 (US)
星等 :
--
轨道信息
数据来源 国际轨道数据
星历时间: 2026-06-12T00:45:42+0800
1天前
查看轨道信息
半长轴: 6861.171km
偏心率: 0.0000946
轨道倾角: 42.995°
近地点辐角 102.931°
升交点赤经 237.793°
平近点角 257.165°
近地点: 482.384km
远地点: 483.684km
周期: 94.266分钟
每日圈数: 15.275853
详细信息
固有亮度:
5
最大亮度:
2.5
卫星平台:
Starlink V1.0
覆盖范围:
全球
运营商:
太空探索技术公司
运营商所在国:
美国
制造商(研发单位):
太空探索技术公司
制造商所在国:
美国
使用方式:
暂无
卫星简介
Starlink 计划是 SpaceX 推出的全球卫星互联网项目,通过发射低轨道卫星,为全球尤其是偏远地区提供高速、低延迟的互联网服务。自 2019 年起,Starlink 已部署数千颗卫星,旨在缩小全球数字鸿沟,推动互联网普及。该项目还为军事、航空等行业提供通信支持,带来广泛经济效益。
2D轨道图
3D轨道图
轨道高度分析图
轨道倾角分析图
轨道综合分析图
查看轨道综合分析图